Weather History for Little Rock, AR

Change the Weather History Date:

Thursday, April 18, 2013

  Actual Average Record
Temperature  
Mean Temperature 61 °F 64 °F  
Max Temperature 77 °F 74 °F 93 °F (2006)
Min Temperature 45 °F 54 °F 36 °F (1983)
Degree Days  
Heating Degree Days 4 4  
Month to date heating degree days 120 103  
Since 1 July heating degree days 2899 2949  
Cooling Degree Days 0 2  
Month to date cooling degree days 44 31  
Year to date cooling degree days 52 50  
Growing Degree Days 12 (Base 50)    
Moisture  
Dew Point 57 °F    
Average Humidity 77    
Maximum Humidity 93    
Minimum Humidity 60    
Precipitation  
Precipitation 1.03 in 0.17 in 1.22 in (1977)
Month to date precipitation 3.03 2.76  
Year to date precipitation 17.16 14.61  
Snow  
Snow 0.00 in 0.00 in - ()
Month to date snowfall 0.0 0.0  
Since 1 July snowfall 10.6 4.4  
Snow Depth 0.00 in    
Sea Level Pressure  
Sea Level Pressure 29.77 in    
Wind  
Wind Speed 16 mph (West)    
Max Wind Speed 24 mph    
Max Gust Speed 35 mph    
Visibility 8 miles    
Events Fog , Rain , Thunderstorm    
T = Trace of Precipitation, MM = Missing Value Source: NWS Daily Summary

Daily Weather History Graph

Daily Weather History Graph

Search for Another Location

Airport:

Trip Planner

Search our weather history database for the weather conditions in past years. The results will help you decide how hot, cold, wet, or windy it might be!

Date:

Astronomy

Apr. 18, 2013 Rise Set
Actual Time 6:33 AM CDT 7:43 PM CDT
Civil Twilight 6:07 AM CDT 8:09 PM CDT
Nautical Twilight 5:35 AM CDT 8:41 PM CDT
Astronomical Twilight 5:03 AM CDT 9:13 PM CDT
Moon 12:47 PM CDT (4/18) 1:55 AM CDT (4/18)
Length of Visible Light 14h 02m
Length of Day
13h 10m
First Quarter, 52% of the Moon is Illuminated
Apr 18
First Quarter
Apr 25
Full
May 2
Last Quarter
May 9
New
May 17
First Quarter

Hourly Weather History & Observations

Time (CDT) Temp. Windchill Dew Point Humidity Pressure Visibility Wind Dir Wind Speed Gust Speed Precip Events Conditions
12:53 AM 77.0 °F - 68.0 °F 74% 29.77 in 10.0 mi South 13.8 mph 19.6 mph N/A   Overcast
1:53 AM 77.0 °F - 68.0 °F 74% 29.75 in 10.0 mi South 13.8 mph - N/A   Overcast
2:53 AM 75.9 °F - 68.0 °F 76% 29.73 in 10.0 mi South 13.8 mph - N/A   Overcast
3:53 AM 75.9 °F - 68.0 °F 76% 29.71 in 10.0 mi South 15.0 mph 24.2 mph N/A   Overcast
4:53 AM 73.9 °F - 69.1 °F 85% 29.73 in 7.0 mi South 11.5 mph - 0.02 in Rain Light Rain
5:53 AM 73.9 °F - 69.1 °F 85% 29.73 in 10.0 mi South 11.5 mph - 0.01 in Rain Light Rain
6:15 AM 73.4 °F - 68.0 °F 83% 29.72 in 10.0 mi SSE 13.8 mph - 0.00 in   Mostly Cloudy
6:53 AM 73.9 °F - 68.0 °F 82% 29.72 in 10.0 mi SSE 18.4 mph 23.0 mph 0.00 in   Mostly Cloudy
7:53 AM 73.9 °F - 68.0 °F 82% 29.73 in 10.0 mi SSE 21.9 mph 29.9 mph N/A   Mostly Cloudy
8:53 AM 73.0 °F - 68.0 °F 84% 29.75 in 5.0 mi South 13.8 mph - 0.02 in Rain Rain
9:53 AM 73.0 °F - 68.0 °F 84% 29.73 in 7.0 mi SSE 15.0 mph 21.9 mph 0.04 in   Overcast
10:53 AM 75.0 °F - 69.1 °F 82% 29.72 in 10.0 mi South 13.8 mph 25.3 mph N/A   Overcast
11:53 AM 75.0 °F - 68.0 °F 79% 29.70 in 10.0 mi South 13.8 mph - N/A   Overcast
12:39 PM 75.2 °F - 68.0 °F 78% 29.69 in 10.0 mi South 11.5 mph - N/A Thunderstorm Thunderstorm
12:53 PM 73.9 °F - 68.0 °F 82% 29.70 in 7.0 mi WSW 15.0 mph 24.2 mph 0.00 in Rain , Thunderstorm Light Thunderstorms and Rain
1:00 PM 66.2 °F - 64.4 °F 94% 29.72 in 0.8 mi West 16.1 mph 29.9 mph 0.04 in Rain , Thunderstorm Heavy Thunderstorms and Rain
1:06 PM 66.2 °F - 64.4 °F 94% 29.72 in 0.5 mi WNW 9.2 mph 23.0 mph 0.30 in Fog , Rain , Thunderstorm Heavy Thunderstorms and Rain
1:18 PM 62.6 °F - 60.8 °F 94% 29.72 in 4.0 mi NW 12.7 mph - 0.60 in Rain , Thunderstorm Thunderstorms and Rain
1:40 PM 60.8 °F - 57.2 °F 88% 29.68 in 6.0 mi NNW 12.7 mph - 0.63 in Rain Light Rain
1:53 PM 61.0 °F - 57.9 °F 90% 29.70 in 7.0 mi NW 10.4 mph - 0.64 in Rain Light Rain
2:18 PM 59.0 °F - 55.4 °F 88% 29.73 in 7.0 mi NW 11.5 mph - 0.00 in Rain Light Rain
2:53 PM 55.9 °F - 52.0 °F 87% 29.77 in 5.0 mi WNW 19.6 mph 29.9 mph 0.02 in Rain Light Rain
3:14 PM 53.6 °F - 51.8 °F 94% 29.74 in 3.0 mi NW 17.3 mph 27.6 mph N/A Rain Rain
3:53 PM 53.1 °F - 52.0 °F 96% 29.79 in 3.0 mi WNW 20.7 mph 27.6 mph 0.10 in Rain Light Rain
4:01 PM 51.8 °F - 51.8 °F 100% 29.77 in 2.0 mi WNW 13.8 mph 31.1 mph 0.03 in Rain Heavy Rain
4:14 PM 51.8 °F - 51.8 °F 100% 29.75 in 3.0 mi WNW 23.0 mph 29.9 mph 0.12 in Rain Heavy Rain
4:33 PM 50.0 °F - 50.0 °F 100% 29.75 in 10.0 mi NW 15.0 mph 29.9 mph 0.14 in   Overcast
4:53 PM 50.0 °F - 48.2 °F 94% 29.77 in 10.0 mi WNW 17.3 mph 27.6 mph 0.14 in   Overcast
5:53 PM 50.0 °F - 48.4 °F 94% 29.80 in 10.0 mi WNW 16.1 mph 29.9 mph 0.01 in Rain Light Rain
6:38 PM 48.2 °F - 44.6 °F 87% 29.83 in 10.0 mi WNW 18.4 mph 28.8 mph 0.01 in Rain Light Rain
6:53 PM 48.9 °F - 45.0 °F 86% 29.84 in 10.0 mi WNW 16.1 mph 25.3 mph 0.01 in Rain Light Rain
7:53 PM 48.0 °F - 43.5 °F 84% 29.85 in 10.0 mi NW 18.4 mph 27.6 mph 0.02 in   Overcast
8:16 PM 48.2 °F - 41.0 °F 76% 29.86 in 10.0 mi NW 18.4 mph 25.3 mph 0.00 in Rain Light Rain
8:53 PM 48.0 °F - 42.6 °F 82% 29.90 in 10.0 mi NW 12.7 mph - 0.00 in Rain Light Rain
9:53 PM 48.0 °F - 41.9 °F 79% 29.94 in 10.0 mi NW 19.6 mph 32.2 mph 0.00 in   Overcast
10:53 PM 46.0 °F 39.0 °F 37.9 °F 73% 29.96 in 10.0 mi WNW 17.3 mph 27.6 mph N/A   Overcast
11:53 PM 46.0 °F 38.5 °F 34.0 °F 63% 29.97 in 10.0 mi NW 19.6 mph 24.2 mph N/A   Mostly Cloudy